Terug naar catalogus

SCOUT B DEB

ActiefLEO
NORAD 29168·DEBRIS·🇺🇸 United States

Gelanceerd Aug 10, 1965 vanaf Wallops Flight Facility

Loading…

Volgende Passages (komende 24 uur)

TLE

VersSource: Space-Track

Epoch: Sep 14, 2026, 11:45 UTC

1 29168U 65063S   26257.49003958  .00004498  00000-0  19607-1 0  9995
2 29168  69.3197  85.2361 0406555  45.7382 333.5054 12.58117315641471

Volg SCOUT B DEB in realtime met AllMySat

Download on the App Store